Canby, MN

12:48 PM CDT on October 18, 2017 (GMT -0500)
Canby

Weather History for KCNB - October, 2012

Change the Weather History Date:

Wednesday, October 31, 2012

  Actual Average (KMML) Record (KMML)
Temperature  
Mean Temperature 43 °F -  
Max Temperature 60 °F 52 °F 77 °F (1990)
Min Temperature 26 °F 33 °F 12 °F (2002)
Degree Days  
Heating Degree Days 22    
Moisture  
Dew Point 32 °F    
Average Humidity 71    
Maximum Humidity 96    
Minimum Humidity 39    
Precipitation  
Precipitation 0.00 in - - ()
Sea Level Pressure  
Sea Level Pressure 30.01 in    
Wind  
Wind Speed 3 mph (WSW)    
Max Wind Speed 10 mph    
Max Gust Speed -    
Visibility 10 miles    
Events      
Averages and records for this station are not official NWS values.
T = Trace of Precipitation, MM = Missing Value Source: NWS Daily Summary

Daily Weather History Graph

Daily Weather History Graph

Search for Another Location

Airport or City:

Trip Planner

Search our weather history database for the weather conditions in past years. The results will help you decide how hot, cold, wet, or windy it might be!

Date:

Astronomy

Oct. 31, 2012 Rise Set
Actual Time 8:02 AM CDT 6:14 PM CDT
Civil Twilight 7:31 AM CDT 6:44 PM CDT
Nautical Twilight 6:57 AM CDT 7:19 PM CDT
Astronomical Twilight 6:23 AM CDT 7:53 PM CDT
Moon 7:21 PM CDT (10/31) 9:48 AM CDT (10/31)
Length of Visible Light 11h 12m
Length of Day
10h 12m
Full, 97% of the Moon is Illuminated
Oct 31
Full
Nov 6
Last Quarter
Nov 13
New
Nov 20
First Quarter
Nov 28
Full

Hourly Weather History & Observations

Time (CDT) Temp. Windchill Dew Point Humidity Pressure Visibility Wind Dir Wind Speed Gust Speed Precip Events Conditions
12:14 AM 30.7 °F 26.0 °F 28.0 °F 90% 30.09 in 10.0 mi SW 4.6 mph - N/A   Mostly Cloudy
12:35 AM 30.9 °F - 28.0 °F 89% 30.09 in 10.0 mi Calm Calm - N/A   Scattered Clouds
12:55 AM 31.1 °F - 28.6 °F 90% 30.08 in 10.0 mi Calm Calm - N/A   Mostly Cloudy
1:15 AM 30.2 °F 26.7 °F 28.2 °F 92% 30.07 in 10.0 mi East 3.5 mph - N/A   Mostly Cloudy
1:34 AM 29.3 °F - 27.3 °F 92% 30.07 in 10.0 mi Calm Calm - N/A   Scattered Clouds
1:54 AM 29.8 °F - 28.0 °F 93% 30.07 in 10.0 mi Calm Calm - N/A   Scattered Clouds
2:15 AM 30.2 °F - 28.2 °F 92% 30.07 in 10.0 mi Calm Calm - N/A   Mostly Cloudy
2:54 AM 30.0 °F - 28.6 °F 94% 30.06 in 10.0 mi Calm Calm - N/A   Clear
3:15 AM 29.5 °F - 27.3 °F 92% 30.07 in 10.0 mi Calm Calm - N/A   Clear
3:35 AM 28.0 °F - 26.6 °F 94% 30.07 in 10.0 mi Calm Calm - N/A   Scattered Clouds
3:54 AM 27.7 °F - 26.4 °F 95% 30.07 in 10.0 mi Calm Calm - N/A   Clear
4:15 AM 28.8 °F - 27.0 °F 93% 30.07 in 10.0 mi Calm Calm - N/A   Clear
4:34 AM 27.9 °F - 25.9 °F 92% 30.06 in 10.0 mi Calm Calm - N/A   Clear
4:55 AM 28.4 °F - 26.1 °F 91% 30.05 in 10.0 mi Calm Calm - N/A   Clear
5:14 AM 28.2 °F - 27.0 °F 95% 30.05 in 10.0 mi Calm Calm - N/A   Clear
5:35 AM 28.0 °F - 26.4 °F 94% 30.05 in 10.0 mi Calm Calm - N/A   Clear
5:55 AM 27.3 °F - 25.2 °F 92% 30.05 in 10.0 mi Calm Calm - N/A   Clear
6:14 AM 26.8 °F - 25.7 °F 96% 30.05 in 10.0 mi Calm Calm - N/A   Clear
6:35 AM 27.0 °F 23.0 °F 26.1 °F 96% 30.05 in 10.0 mi SW 3.5 mph - N/A   Clear
6:55 AM 27.3 °F - 25.7 °F 94% 30.04 in 10.0 mi Calm Calm - N/A   Clear
7:14 AM 26.8 °F - 25.3 °F 94% 30.04 in 10.0 mi Calm Calm - N/A   Scattered Clouds
7:35 AM 27.9 °F - 26.2 °F 94% 30.04 in 10.0 mi Calm Calm - N/A   Scattered Clouds
7:54 AM 27.3 °F - 25.7 °F 94% 30.04 in 10.0 mi Calm Calm - N/A   Scattered Clouds
8:14 AM 27.5 °F - 25.9 °F 94% 30.04 in 7.0 mi Calm Calm - N/A   Scattered Clouds
8:35 AM 28.2 °F - 26.8 °F 94% 30.04 in 7.0 mi Calm Calm - N/A   Clear
8:55 AM 32.2 °F 28.9 °F 30.2 °F 92% 30.04 in 7.0 mi SSW 3.5 mph - N/A   Clear
9:14 AM 34.7 °F - 31.6 °F 89% 30.04 in 7.0 mi Calm Calm - N/A   Clear
9:35 AM 36.9 °F - 32.4 °F 84% 30.04 in 10.0 mi Calm Calm - N/A   Mostly Cloudy
9:54 AM 38.3 °F - 30.7 °F 74% 30.03 in 10.0 mi Calm Calm - N/A   Mostly Cloudy
10:15 AM 42.1 °F 37.7 °F 30.9 °F 65% 30.03 in 10.0 mi SW 6.9 mph - N/A   Clear
10:34 AM 44.8 °F 40.4 °F 29.8 °F 56% 30.03 in 10.0 mi WSW 8.1 mph - N/A   Clear
10:55 AM 46.9 °F - 29.5 °F 51% 30.03 in 10.0 mi SW 6.9 mph - N/A   Clear
11:20 AM 49.3 °F - 29.8 °F 47% 30.02 in 10.0 mi SW 5.8 mph - N/A   Clear
11:35 AM 50.7 °F - 30.6 °F 46% 30.02 in 10.0 mi WSW 6.9 mph - N/A   Clear
11:54 AM 52.0 °F - 30.4 °F 44% 30.02 in 10.0 mi WSW 10.4 mph - N/A   Clear
12:15 PM 53.4 °F - 31.1 °F 43% 30.01 in 10.0 mi SW 9.2 mph - N/A   Clear
12:34 PM 54.7 °F - 31.6 °F 42% 30.01 in 10.0 mi West 8.1 mph - N/A   Clear
12:54 PM 55.0 °F - 31.8 °F 41% 30.00 in 10.0 mi West 4.6 mph - N/A   Clear
1:20 PM 56.3 °F - 32.0 °F 40% 29.98 in 10.0 mi West 6.9 mph - N/A   Clear
1:34 PM 56.1 °F - 32.0 °F 40% 29.98 in 10.0 mi SW 5.8 mph - N/A   Clear
2:15 PM 58.1 °F - 33.3 °F 39% 29.97 in 10.0 mi West 6.9 mph - N/A   Clear
2:34 PM 58.1 °F - 33.4 °F 39% 29.97 in 10.0 mi West 5.8 mph - N/A   Clear
2:55 PM 57.9 °F - 34.7 °F 42% 29.96 in 7.0 mi WSW 4.6 mph - N/A   Clear
3:15 PM 57.6 °F - 35.4 °F 43% 29.96 in 10.0 mi SW 6.9 mph - N/A   Clear
3:35 PM 58.1 °F - 36.5 °F 44% 29.95 in 10.0 mi West 5.8 mph - N/A   Clear
3:54 PM 58.3 °F - 36.3 °F 44% 29.95 in 10.0 mi WSW 3.5 mph - N/A   Clear
4:15 PM 59.2 °F - 37.4 °F 44% 29.95 in 10.0 mi WSW 3.5 mph - N/A   Clear
4:35 PM 59.9 °F - 36.9 °F 42% 29.95 in 10.0 mi Calm Calm - N/A   Clear
4:54 PM 60.1 °F - 37.9 °F 44% 29.94 in 10.0 mi Calm Calm - N/A   Clear
5:15 PM 59.9 °F - 39.4 °F 47% 29.94 in 10.0 mi West 5.8 mph - N/A   Clear
5:35 PM 58.8 °F - 39.4 °F 49% 29.94 in 10.0 mi West 5.8 mph - N/A   Clear
5:55 PM 57.0 °F - 39.2 °F 51% 29.95 in 10.0 mi WSW 4.6 mph - N/A   Clear
6:15 PM 55.4 °F - 38.3 °F 53% 29.94 in 10.0 mi WSW 4.6 mph - N/A   Clear
6:35 PM 53.2 °F - 37.9 °F 56% 29.95 in 10.0 mi WSW 4.6 mph - N/A   Clear
6:55 PM 50.2 °F - 37.6 °F 62% 29.95 in 10.0 mi WSW 3.5 mph - N/A   Clear
7:14 PM 47.3 °F - 36.9 °F 67% 29.95 in 10.0 mi WSW 3.5 mph - N/A   Clear
7:35 PM 47.3 °F - 37.4 °F 68% 29.95 in 10.0 mi WSW 6.9 mph - N/A   Scattered Clouds
7:55 PM 46.9 °F - 37.9 °F 71% 29.95 in 10.0 mi Calm Calm - N/A   Mostly Cloudy
8:15 PM 48.4 °F - 37.9 °F 67% 29.95 in 10.0 mi WSW 3.5 mph - N/A   Scattered Clouds
8:35 PM 46.9 °F - 38.1 °F 71% 29.95 in 10.0 mi West 3.5 mph - N/A   Scattered Clouds
8:54 PM 47.7 °F - 39.4 °F 73% 29.95 in 10.0 mi West 5.8 mph - N/A   Mostly Cloudy
9:14 PM 48.6 °F - 40.1 °F 73% 29.95 in 10.0 mi West 5.8 mph - N/A   Mostly Cloudy
9:35 PM 47.7 °F - 39.2 °F 72% 29.95 in 10.0 mi North 3.5 mph - N/A   Scattered Clouds
10:14 PM 46.6 °F - 39.2 °F 75% 29.96 in 10.0 mi West 5.8 mph - N/A   Scattered Clouds
10:35 PM 45.5 °F 41.3 °F 38.8 °F 78% 29.96 in 10.0 mi West 8.1 mph - N/A   Scattered Clouds
11:14 PM 45.3 °F 41.1 °F 38.8 °F 78% 29.98 in 10.0 mi NW 8.1 mph - N/A   Scattered Clouds
11:35 PM 46.4 °F 41.9 °F 39.2 °F 76% 29.98 in 10.0 mi NNW 9.2 mph - N/A   Scattered Clouds
11:55 PM 44.4 °F 40.5 °F 38.7 °F 80% 29.98 in 10.0 mi WNW 6.9 mph - N/A   Scattered Clouds